Header for Extended Forecast Station List Page

Search by: ID | Name | Date | Parm | Value | Avg | % Avg
Sort by: ID | Name | Date | Parm | Value | Avg | % Avg

Enter search or view all records.

Click on id for station plot
#IDNameDateParmValueAvg% Avg
0LYDM8KOOTENAI-LIBBY DAM08-25-2015INFLOW (KAF)969122479
1LEOI1KOOTENAI-AT LEONIA08-25-2015DISCHARGE (KAF)20981849114
2BFEI1KOOTENAI-AT BONNERS FERRY08-25-2015STAGE (FT)MMM
3FCFM8NF FLATHEAD-NEAR COLUMBIA FALLS08-25-2015DISCHARGE (KAF)12823554
4WGCM8MF FLATHEAD-NEAR WEST GLACIER08-25-2015DISCHARGE (KAF)7119637
5HHWM8SF FLATHEAD-HUNGRY HORSE DAM08-25-2015INFLOW (KAF)13023555
6CFMM8FLATHEAD-AT COLUMBIA FALLS08-25-2015DISCHARGE (KAF)868117174
7DLGM8CLARK FORK-AT DEER LODGE08-25-2015DISCHARGE (KAF)575799
8DRMM8CLARK FORK-NR DRUMMOND08-25-2015DISCHARGE (KAF)149MM
9RCCM8ROCK CREEK-NEAR CLINTON08-25-2015DISCHARGE (KAF)395767
10BONM8BLACKFOOT-NEAR BONNER08-25-2015DISCHARGE (KAF)9315161
11ABOM8CLARK FORK-ABOVE MISSOULA08-25-2015DISCHARGE (KAF)28936779
12BITM8BITTERROOT-NEAR MISSOULA08-25-2015DISCHARGE (KAF)14923165
13BELM8CLARK FORK-BELOW MISSOULA08-25-2015DISCHARGE (KAF)43960572
14STRM8ST. REGIS-NEAR ST. REGIS08-25-2015DISCHARGE (KAF)163250
15SRGM8CLARK FORK-AT ST REGIS08-25-2015DISCHARGE (KAF)52378367
16KERM8FLATHEAD-KERR DAM08-25-2015INFLOW (KAF)926141565
17NOXM8CLARK FORK-NOXON RAPIDS DAM08-25-2015INFLOW (KAF)2056309266
18CABI1CLARK FORK-CABINET GORGE DAM08-25-2015INFLOW (KAF)2244323369
19PRTI1PRIEST-NEAR PRIEST RIVER08-25-2015DISCHARGE (KAF)16919587
20ALFW1PEND OREILLE-ALBENI FALLS DAM08-25-2015INFLOW (KAF)2384365465
21HOPI1PEND OREILLE-PEND OREILLE LAKE NR HOPE08-25-2015LAKE ELEVATION (FT)MMM
22COEI1COEUR D ALENE-COEUR D ALENE LAKE08-25-2015INFLOW (KAF)18835154
23SPOW1SPOKANE-AT SPOKANE08-25-2015DISCHARGE (KAF)356MM
24LLKW1SPOKANE-AT LONGLAKE08-25-2015INFLOW (KAF)50676266
25SATI1ST MARIES-NEAR SANTA08-25-2015DISCHARGE (KAF)122059
26SJMI1ST JOE-AT ST MARIES08-25-2015STAGE (FT)MMM
27CIBW1COLUMBIA-AT INTL BOUNDARY08-25-2015DISCHARGE (KAF)18689MM
28LAUW1KETTLE-AT LAURIER08-25-2015DISCHARGE (KAF)7812861
29GCDW1COLUMBIA-GRAND COULEE DAM08-25-2015INFLOW (KAF)1930617660109
30CHJW1COLUMBIA-CHIEF JOSEPH DAM08-25-2015INFLOW (KAF)1914919073100
31TONW1OKANOGAN-NEAR TONASKET08-25-2015DISCHARGE (KAF)15627956
32PATW1METHOW-NEAR PATEROS08-25-2015DISCHARGE (KAF)6610463
33WELW1COLUMBIA-WELLS DAM08-25-2015INFLOW (KAF)1937519379100
34CHDW1CHELAN-LAKE CHELAN DAM08-25-2015INFLOW (KAF)178169105
35RRHW1COLUMBIA-ROCKY REACH DAM08-25-2015INFLOW (KAF)197411984499
36ARDW1ENTIAT-NEAR ARDENVOIR08-25-2015DISCHARGE (KAF)162370
37PESW1WENATCHEE-AT PESHASTIN08-25-2015DISCHARGE (KAF)18425173
38WANW1COLUMBIA-WANAPUM DAM08-25-2015INFLOW (KAF)1993018777106
39PRWW1COLUMBIA-PRIEST RAPIDS DAM08-25-2015INFLOW (KAF)1993219043105
40KEDW1YAKIMA-KEECHELUS LAKE08-25-2015INFLOW (KAF)4439112
41KADW1KACHESS-KACHESS DAM08-25-2015INFLOW (KAF)2928101
42EASW1YAKIMA-AT EASTON08-25-2015DISCHARGE (KAF)8759146
43CLUW1CLE ELUM-CLE ELUM LAKE08-25-2015INFLOW (KAF)548166
44TNAW1TEANAWAY-BELOW FORKS08-25-2015DISCHARGE (KAF)131873
45UMTW1YAKIMA-AT UMTANUM08-25-2015DISCHARGE (KAF)26735076
46BUDW1BUMPING-BUMPING LAKE DAM08-25-2015INFLOW (KAF)152658
47CLFW1NACHES-NEAR CLIFFDEL08-25-2015DISCHARGE (KAF)608173
48RILW1TIETON-RIMROCK LAKE NEAR RIMROCK08-25-2015INFLOW (KAF)476178
49NACW1NACHES-NEAR NACHES08-25-2015DISCHARGE (KAF)648575
50PARW1YAKIMA-NEAR PARKER08-25-2015DISCHARGE (KAF)24826195
51KIOW1YAKIMA-AT KIONA08-25-2015DISCHARGE (KAF)564545103
52IPDI1HENRYS FORK-ISLAND PARK DAM08-25-2015INFLOW (KAF)10113078
53CHEI1FALL RIVER-NEAR CHESTER08-25-2015DISCHARGE (KAF)919992
54ANTI1HENRYS FORK-AT ST. ANTHONY08-25-2015DISCHARGE (KAF)18932558
55TEAI1TETON-NEAR ST. ANTHONY08-25-2015DISCHARGE (KAF)9213469
56REXI1HENRYS FORK-AT REXBURG08-25-2015DISCHARGE (KAF)24740561
57JLKW4SNAKE-JACKSON LAKE AT DAM08-25-2015INFLOW (KAF)9011976
58JKSW4SNAKE-NEAR JACKSON08-25-2015DISCHARGE (KAF)40450780
59ALPW4SNAKE-NEAR ALPINE08-25-2015DISCHARGE (KAF)45361274
60PLDI1SF SNAKE-PALISADES DAM08-25-2015INFLOW (KAF)72090280
61HEII1SNAKE-NEAR HEISE08-25-2015DISCHARGE (KAF)977102895
62RIDI1WILLOW CREEK-RIRIE DAM08-25-2015INFLOW (KAF)6788
63SIFI1SNAKE-AB EAGLE ROCK NR IDAHO FALLS08-25-2015DISCHARGE (KAF)77694782
64SHYI1SNAKE-NEAR SHELLEY08-25-2015DISCHARGE (KAF)72282687
65SNAI1SNAKE-AT BLACKFOOT08-25-2015DISCHARGE (KAF)48762179
66BFTI1SNAKE-NEAR BLACKFOOT08-25-2015DISCHARGE (KAF)50365377
67PIHI1PORTNEUF-AT POCATELLO08-25-2015DISCHARGE (KAF)244455
68AFRI1SNAKE-AMERICAN FALLS RESERVOIR08-25-2015INFLOW (KAF)1132132585
69MILI1SNAKE-AT MILNER08-25-2015DISCHARGE (KAF)7827529
70HOTI1BRUNEAU-NEAR HOT SPRINGS08-25-2015DISCHARGE (KAF)142362
71SWAI1SNAKE-BELOW SWAN FALLS08-25-2015DISCHARGE (KAF)1759230576
72HWRI1BIG LOST-AT HOWELL RANCH NEAR CHILLY08-25-2015DISCHARGE (KAF)182768
73MACI1BIG LOST-MACKAY RESERVOIR NEAR MACKAY08-25-2015INFLOW (KAF)3013221
74HALI1BIG WOOD-AT HAILEY08-25-2015DISCHARGE (KAF)304664
75MAGI1BIG WOOD-MAGIC DAM08-25-2015INFLOW (KAF)62823
76LWRI1LITTLE WOOD-LITTLE WOOD DAM08-25-2015INFLOW (KAF)51537
77OWYO3OWYHEE-BELOW OWYHEE DAM08-25-2015INFLOW (KAF)175929
78ARAI1SF BOISE-ANDERSON RANCH DAM08-25-2015INFLOW (KAF)656896
79LUCI1BOISE-LUCKY PEAK DAM08-25-2015INFLOW (KAF)94MM
80BIGI1BOISE-AT GLENWOOD BRIDGE08-25-2015DISCHARGE (KAF)578170
81PARI1BOISE-NEAR PARMA08-25-2015DISCHARGE (KAF)17522578
82WRMO3MALHEUR-WARM SPRINGS DAM08-25-2015INFLOW (KAF)99101
83BERO3MALHEUR-AGENCY VALLEY DAM08-25-2015INFLOW (KAF)71069
84BULO3BULLY CREEK-BULLY CREEK DAM08-25-2015INFLOW (KAF)1184
85VALO3MALHEUR-NEAR VALE08-25-2015DISCHARGE (KAF)72726
86CSDI1NF PAYETTE-CASCADE DAM08-25-2015INFLOW (KAF)688084
87DEDI1DEADWOOD-NEAR LOWMAN08-25-2015INFLOW (KAF)151881
88EMMI1PAYETTE-NEAR EMMETT08-25-2015DISCHARGE (KAF)23336863
89WSRI1WEISER-NEAR WEISER08-25-2015DISCHARGE (KAF)385076
90WEII1SNAKE-AT WEISER08-25-2015DISCHARGE (KAF)2492333475
91BRNI1SNAKE-BROWNLEE DAM08-25-2015INFLOW (KAF)2625340377
92WHBI1SALMON-AT WHITEBIRD08-25-2015DISCHARGE (KAF)778111970
93TRYO3GRANDE RONDE-TROY08-25-2015DISCHARGE (KAF)12222055
94ANAW1SNAKE-NEAR ANATONE08-25-2015DISCHARGE (KAF)3370498168
95ORFI1CLEARWATER-AT OROFINO08-25-2015DISCHARGE (KAF)32552162
96DWRI1NF CLEARWATER-DWORSHAK DAM08-25-2015INFLOW (KAF)19439050
97SPDI1CLEARWATER-AT SPALDING08-25-2015DISCHARGE (KAF)923123575
98LGDW1SNAKE-LOWER GRANITE DAM08-25-2015INFLOW (KAF)4293634868
99LGSW1SNAKE-LITTLE GOOSE DAM08-25-2015INFLOW (KAF)4262638467
100LMNW1SNAKE-LOWER MONUMENTAL DAM08-25-2015INFLOW (KAF)4273639467
101IHDW1SNAKE-ICE HARBOR DAM08-25-2015INFLOW (KAF)4266631668
102TCHW1WALLA WALLA-NEAR TOUCHET08-25-2015DISCHARGE (KAF)233959
103MCDW1COLUMBIA-MCNARY DAM08-25-2015INFLOW (KAF)248002652494
104GIBO3UMATILLA-NEAR GIBBON08-25-2015DISCHARGE (KAF)161885
105PDTO3UMATILLA-AT PENDLETON08-25-2015DISCHARGE (KAF)243177
106MYKO3MCKAY CREEK-NEAR PILOT ROCK08-25-2015DISCHARGE (KAF)5598
107UMAO3UMATILLA-NEAR UMATILLA08-25-2015DISCHARGE (KAF)3429115
108MONO3NF JOHN DAY-AT MONUMENT08-25-2015DISCHARGE (KAF)354872
109SERO3JOHN DAY-AT SERVICE CK08-25-2015DISCHARGE (KAF)599264
110JDAO3COLUMBIA-JOHN DAY DAM08-25-2015INFLOW (KAF)254202709594
111MODO3DESCHUTES-AT MOODY NR BIGGS08-25-2015DISCHARGE (KAF)1101118593
112TDAO3COLUMBIA-THE DALLES DAM08-25-2015INFLOW (KAF)260812894990
113PITW1KLICKITAT-NEAR PITT08-25-2015DISCHARGE (KAF)16920184
114HODO3HOOD-NEAR TUCKER BRIDGE08-25-2015DISCHARGE (KAF)12714190
115UNDW1WHITE SALMON-NEAR UNDERWOOD08-25-2015DISCHARGE (KAF)14117182
116BONO3COLUMBIA-BONNEVILLE DAM08-25-2015INFLOW (KAF)26520MM